Total_Precipitation_Accumulation
0.81 0.69 0.80 0.81 0.68 0.75 1.10 1.05 0.98 0.70 0.65 0.74 0.73 0.75 0.73 0.67 0.58 0.52 0.50 0.49 0.47 0.49 0.51 0.55 0.58 0.65 0.79 0.93 1.01 1.14 1.28 1.30 1.29 1.29 1.28 1.27 1.27 1.23 1.24 1.29 1.37 1.46 1.47 1.39
0.85 0.53 0.56 0.61 0.51 0.59 0.72 0.68 0.67 0.56 0.65 0.61 0.59 0.62 0.64 0.60 0.52 0.46 0.47 0.46 0.41 0.41 0.42 0.45 0.50 0.55 0.65 0.82 0.93 1.03 1.16 1.23 1.24 1.23 1.24 1.24 1.21 1.18 1.13 1.17 1.26 1.36 1.43 1.46
1.03 0.55 0.65 0.74 0.60 0.59 0.66 0.64 0.62 0.71 0.68 0.49 0.49 0.58 0.69 0.64 0.52 0.48 0.48 0.46 0.44 0.43 0.43 0.42 0.44 0.53 0.64 0.76 0.84 0.90 0.98 1.06 1.11 1.12 1.15 1.18 1.18 1.20 1.24 1.25 1.29 1.38 1.46 1.52
1.20 0.88 1.05 0.76 0.50 0.49 0.58 0.63 0.58 0.61 0.52 0.46 0.52 0.57 0.61 0.63 0.58 0.51 0.45 0.43 0.44 0.46 0.44 0.43 0.43 0.49 0.62 0.76 0.87 0.94 1.00 1.04 1.04 1.08 1.13 1.17 1.25 1.33 1.41 1.47 1.48 1.54 1.60 1.62
1.31 0.98 0.63 0.40 0.31 0.45 0.58 0.65 0.55 0.49 0.41 0.37 0.39 0.47 0.53 0.51 0.52 0.53 0.48 0.46 0.48 0.51 0.52 0.50 0.50 0.52 0.61 0.76 0.87 0.96 1.04 1.09 1.10 1.16 1.26 1.32 1.42 1.50 1.53 1.61 1.59 1.55 1.53 1.53
1.39 1.12 0.61 0.40 0.21 0.25 0.46 0.68 0.43 0.38 0.39 0.36 0.36 0.49 0.53 0.49 0.52 0.54 0.50 0.49 0.52 0.53 0.52 0.55 0.60 0.61 0.70 0.86 0.95 1.05 1.14 1.23 1.24 1.26 1.33 1.38 1.41 1.41 1.40 1.40 1.37 1.31 1.27 1.22
1.12 1.07 0.57 0.38 0.18 0.18 0.56 0.71 0.43 0.42 0.44 0.42 0.48 0.56 0.51 0.46 0.49 0.53 0.56 0.59 0.61 0.62 0.65 0.73 0.78 0.82 0.93 1.06 1.19 1.24 1.26 1.33 1.32 1.27 1.27 1.26 1.23 1.17 1.12 1.10 1.06 1.03 1.00 0.96
0.82 1.13 0.75 0.38 0.27 0.50 0.70 0.48 0.42 0.41 0.42 0.42 0.40 0.37 0.37 0.38 0.42 0.46 0.50 0.55 0.62 0.69 0.74 0.78 0.88 0.97 1.08 1.23 1.30 1.23 1.18 1.17 1.12 1.04 1.01 0.97 0.95 0.98 0.97 0.94 0.97 0.97 0.94 0.91
0.77 0.85 0.70 0.53 0.55 0.58 0.51 0.47 0.42 0.43 0.41 0.39 0.38 0.38 0.38 0.37 0.38 0.41 0.42 0.45 0.51 0.59 0.66 0.70 0.79 0.84 0.92 0.97 0.95 0.93 0.92 0.93 0.92 0.88 0.86 0.87 0.86 0.89 0.95 0.93 0.93 0.93 0.91 0.94
0.67 0.64 0.55 0.50 0.46 0.43 0.41 0.43 0.40 0.38 0.37 0.35 0.39 0.36 0.35 0.35 0.36 0.38 0.40 0.41 0.43 0.46 0.52 0.60 0.66 0.70 0.72 0.72 0.71 0.74 0.81 0.86 0.87 0.88 0.86 0.87 0.89 0.87 0.91 0.95 0.96 0.93 0.91 0.93
0.58 0.48 0.42 0.39 0.36 0.38 0.36 0.32 0.32 0.31 0.30 0.33 0.34 0.33 0.34 0.35 0.37 0.39 0.39 0.41 0.43 0.49 0.55 0.63 0.65 0.68 0.72 0.73 0.73 0.78 0.83 0.88 0.92 0.93 0.90 0.89 0.91 0.93 0.95 0.98 1.04 1.14 1.11 1.04
0.65 0.48 0.50 0.46 0.36 0.33 0.33 0.33 0.35 0.35 0.34 0.33 0.35 0.39 0.38 0.40 0.42 0.43 0.43 0.42 0.43 0.46 0.53 0.62 0.63 0.65 0.71 0.76 0.80 0.84 0.86 0.88 0.91 0.94 0.94 0.92 0.88 0.94 1.00 1.01 1.03 1.05 1.06 1.08
0.53 0.39 0.38 0.35 0.30 0.29 0.32 0.36 0.38 0.37 0.37 0.38 0.38 0.40 0.42 0.45 0.46 0.47 0.47 0.46 0.49 0.52 0.54 0.59 0.61 0.64 0.72 0.76 0.79 0.85 0.90 0.92 0.93 0.93 0.94 0.94 0.89 0.87 0.95 1.01 1.04 1.03 1.02 1.03
0.33 0.31 0.33 0.30 0.33 0.32 0.34 0.36 0.35 0.36 0.37 0.39 0.41 0.41 0.43 0.45 0.45 0.46 0.53 0.57 0.56 0.54 0.52 0.53 0.53 0.60 0.68 0.70 0.73 0.79 0.84 0.90 0.93 0.93 0.96 0.98 0.98 0.93 0.89 0.90 0.94 0.96 0.97 1.03
0.28 0.32 0.39 0.36 0.33 0.32 0.32 0.31 0.31 0.33 0.33 0.36 0.38 0.42 0.44 0.47 0.50 0.53 0.55 0.55 0.51 0.48 0.48 0.47 0.48 0.55 0.60 0.64 0.67 0.73 0.80 0.88 0.93 0.94 0.97 1.01 1.03 1.03 0.99 0.93 0.90 0.90 0.91 0.98
0.31 0.30 0.32 0.33 0.35 0.34 0.33 0.32 0.35 0.37 0.37 0.38 0.40 0.45 0.48 0.49 0.49 0.50 0.52 0.51 0.50 0.51 0.51 0.49 0.51 0.54 0.56 0.59 0.62 0.67 0.77 0.92 0.98 0.99 1.00 1.02 1.02 1.03 1.02 0.98 0.94 0.89 0.88 0.96
0.45 0.42 0.39 0.40 0.39 0.39 0.40 0.43 0.44 0.45 0.43 0.42 0.44 0.45 0.44 0.42 0.41 0.43 0.47 0.48 0.48 0.51 0.51 0.51 0.54 0.52 0.51 0.54 0.61 0.66 0.72 0.81 0.91 0.90 0.92 0.98 1.03 1.05 1.06 1.05 1.00 0.93 0.91 1.00
0.54 0.55 0.53 0.52 0.50 0.48 0.47 0.45 0.45 0.45 0.45 0.45 0.44 0.42 0.42 0.41 0.43 0.44 0.45 0.43 0.41 0.42 0.47 0.52 0.53 0.48 0.46 0.49 0.56 0.61 0.66 0.72 0.78 0.84 0.88 0.96 1.05 1.06 1.05 1.05 1.00 0.95 0.93 0.98
0.49 0.51 0.51 0.52 0.52 0.50 0.50 0.51 0.50 0.48 0.47 0.45 0.43 0.44 0.45 0.45 0.47 0.48 0.45 0.42 0.41 0.43 0.48 0.49 0.52 0.47 0.47 0.51 0.57 0.60 0.63 0.67 0.71 0.75 0.83 0.91 0.96 0.94 0.95 0.97 0.97 0.94 0.92 0.93
0.48 0.49 0.49 0.51 0.50 0.49 0.51 0.51 0.48 0.47 0.46 0.44 0.44 0.45 0.45 0.47 0.46 0.45 0.42 0.42 0.49 0.54 0.51 0.51 0.48 0.46 0.48 0.52 0.60 0.61 0.62 0.66 0.69 0.73 0.78 0.85 0.87 0.87 0.87 0.88 0.89 0.89 0.89 0.91
0.50 0.49 0.48 0.50 0.52 0.50 0.50 0.48 0.46 0.48 0.49 0.46 0.46 0.47 0.47 0.47 0.44 0.41 0.38 0.40 0.44 0.45 0.45 0.46 0.43 0.45 0.52 0.64 0.68 0.63 0.62 0.66 0.71 0.76 0.80 0.82 0.84 0.84 0.83 0.83 0.84 0.84 0.86 0.87
0.48 0.49 0.51 0.50 0.47 0.48 0.49 0.47 0.47 0.48 0.47 0.48 0.47 0.46 0.45 0.44 0.41 0.38 0.38 0.43 0.45 0.48 0.47 0.43 0.46 0.57 0.73 0.80 0.70 0.63 0.64 0.67 0.71 0.76 0.80 0.81 0.82 0.81 0.78 0.79 0.81 0.81 0.80 0.81
0.45 0.46 0.47 0.48 0.47 0.47 0.45 0.46 0.46 0.45 0.46 0.47 0.49 0.49 0.47 0.45 0.43 0.43 0.46 0.44 0.44 0.48 0.48 0.49 0.59 0.72 0.81 0.73 0.61 0.60 0.63 0.66 0.68 0.71 0.74 0.75 0.75 0.75 0.75 0.74 0.73 0.74 0.75 0.75
0.36 0.36 0.38 0.39 0.36 0.33 0.36 0.38 0.39 0.39 0.41 0.42 0.44 0.45 0.44 0.43 0.41 0.41 0.45 0.47 0.47 0.49 0.48 0.52 0.62 0.69 0.68 0.59 0.54 0.56 0.58 0.60 0.62 0.63 0.64 0.65 0.65 0.66 0.67 0.67 0.67 0.66 0.67 0.68
0.29 0.28 0.27 0.26 0.27 0.29 0.31 0.30 0.29 0.30 0.31 0.34 0.36 0.37 0.38 0.41 0.45 0.44 0.42 0.43 0.44 0.44 0.44 0.46 0.50 0.51 0.50 0.48 0.49 0.51 0.53 0.57 0.62 0.65 0.63 0.61 0.61 0.61 0.60 0.60 0.61 0.61 0.61 0.62
0.24 0.23 0.23 0.24 0.25 0.25 0.25 0.24 0.26 0.27 0.28 0.30 0.33 0.35 0.37 0.39 0.41 0.42 0.42 0.41 0.40 0.41 0.41 0.41 0.41 0.41 0.42 0.43 0.44 0.46 0.48 0.50 0.52 0.54 0.54 0.55 0.56 0.57 0.56 0.56 0.55 0.56 0.58 0.58
0.22 0.21 0.21 0.20 0.20 0.22 0.23 0.24 0.26 0.28 0.30 0.34 0.37 0.36 0.37 0.39 0.39 0.40 0.39 0.38 0.38 0.38 0.38 0.39 0.39 0.40 0.41 0.41 0.41 0.42 0.43 0.45 0.48 0.49 0.50 0.51 0.53 0.54 0.54 0.54 0.54 0.55 0.56 0.55